DW8199 Weather Reports


time (UTC)temp
C
wind
direction
speed
KPH
gust
KPH
rain 1hr
cm
rain 24hr
cm
rain mn
cm
humidity
%
barometer
mb
20260508074535 6 0.0 0.0 0.00 0.00 0.00 84 1014.3
20260508073515 6 291 0.0 1.6 0.00 0.00 0.00 84 1014.2
20260508072515 6 291 0.0 3.2 0.00 0.00 0.00 84 1014.2
20260508071515 6 351 0.0 1.6 0.00 0.00 0.00 84 1014.2
20260508070515 6 62 1.6 3.2 0.00 0.00 0.00 84 1014.3
20260508065515 6 104 0.0 1.6 0.00 0.00 0.00 84 1014.4
20260508064535 5 0.0 0.0 0.00 0.00 0.00 84 1014.2
20260508063515 5 104 0.0 1.6 0.00 0.00 0.00 85 1014.1
20260508062515 5 103 0.0 1.6 0.00 0.00 0.00 86 1014.0
20260508061515 5 0.0 0.0 0.00 0.00 0.00 86 1014.1
20260508060515 5 0.0 0.0 0.00 0.00 0.00 85 1014.0
20260508055515 5 0.0 0.0 0.00 0.00 0.00 85 1014.2
20260508054515 5 103 0.0 1.6 0.00 0.00 0.00 84 1014.3
20260508053515 5 0.0 0.0 0.00 0.00 0.00 83 1014.4
20260508052515 5 0.0 0.0 0.00 0.00 0.00 82 1014.4
20260508051515 5 0.0 0.0 0.00 0.00 0.00 81 1014.5
20260508050516 6 0.0 0.0 0.00 0.00 0.00 81 1014.7
20260508045515 6 0.0 0.0 0.00 0.00 0.00 81 1014.8
20260508044515 6 0.0 0.0 0.00 0.00 0.00 81 1014.7
20260508043515 6 0.0 1.6 0.00 0.00 0.00 81 1014.8
20260508042515 6 103 0.0 1.6 0.00 0.00 0.00 82 1014.7
20260508041515 5 103 0.0 1.6 0.00 0.00 0.00 81 1014.4
20260508040515 6 53 0.0 1.6 0.00 0.00 0.00 81 1014.3
20260508035617 6 0.0 0.0 0.00 0.00 0.00 79 1014.2
20260508034516 6 0.0 0.0 0.00 0.00 0.00 80 1014.3
20260508033537 6 0.0 0.0 0.00 0.00 0.00 79 1014.3
20260508032516 6 0.0 0.0 0.00 0.00 0.00 77 1014.2
20260508031536 6 0.0 0.0 0.00 0.00 0.00 76 1014.1
20260508030517 6 0.0 0.0 0.00 0.00 0.00 76 1014.2
20260508025516 6 0.0 0.0 0.00 0.00 0.00 75 1014.3
20260508024516 6 0.0 0.0 0.00 0.00 0.00 73 1014.3
20260508023517 6 0.0 0.0 0.00 0.00 0.00 72 1014.2
20260508022516 7 0.0 0.0 0.00 0.00 0.00 72 1014.2
20260508021517 7 0.0 0.0 0.00 0.00 0.00 71 1014.2
20260508020516 7 0.0 0.0 0.00 0.00 0.00 69 1014.2
20260508015516 7 0.0 0.0 0.00 0.00 0.00 67 1014.1
20260508014516 8 0.0 0.0 0.00 0.00 0.00 66 1014.0
20260508013516 8 0.0 0.0 0.00 0.00 0.00 64 1013.8
20260508012516 8 0.0 0.0 0.00 0.00 0.00 62 1013.6
20260508011516 9 0.0 0.0 0.00 0.00 0.00 61 1013.5
20260508010516 9 53 0.0 1.6 0.00 0.00 0.00 60 1013.4
20260508005536 10 0.0 1.6 0.00 0.00 0.00 60 1013.3
20260508004516 10 53 0.0 1.6 0.00 0.00 0.00 59 1013.2
20260508003517 11 280 0.0 1.6 0.00 0.00 0.00 56 1013.2
20260508002516 12 0.0 0.0 0.00 0.00 0.00 52 1013.2
20260508001516 12 279 0.0 3.2 0.00 0.00 0.00 49 1013.1
20260508000516 12 286 1.6 6.4 0.00 0.00 0.00 47 1012.9
20260507235516 13 278 3.2 11.3 0.00 0.00 0.00 45 1012.7
20260507234556 13 287 3.2 11.3 0.00 0.00 0.00 45 1012.6
20260507233516 13 289 4.8 9.7 0.00 0.00 0.00 45 1012.6
20260507232517 13 269 3.2 9.7 0.00 0.00 0.00 44 1012.6
20260507231517 13 278 4.8 9.7 0.00 0.00 0.00 44 1012.7
20260507230516 13 283 6.4 12.9 0.00 0.00 0.00 43 1012.7
20260507225516 13 289 4.8 14.5 0.00 0.00 0.00 44 1012.7
20260507224516 13 289 6.4 12.9 0.00 0.00 0.00 44 1012.7
20260507223516 13 287 6.4 19.3 0.00 0.00 0.00 45 1012.7
20260507222516 13 285 9.7 24.1 0.00 0.00 0.00 47 1012.6
20260507221516 13 290 6.4 16.1 0.00 0.00 0.00 46 1012.7
20260507220536 14 290 6.4 14.5 0.00 0.00 0.00 47 1012.6
20260507215516 14 284 8.0 17.7 0.00 0.00 0.00 48 1012.4
20260507214516 15 290 4.8 16.1 0.00 0.00 0.00 47 1012.3
20260507213516 15 275 6.4 16.1 0.00 0.00 0.00 47 1012.1
20260507212516 15 283 6.4 17.7 0.00 0.00 0.00 46 1011.9
20260507211536 15 288 8.0 16.1 0.00 0.00 0.00 45 1011.7
20260507210516 15 274 4.8 14.5 0.00 0.00 0.00 44 1011.6
20260507205516 15 281 6.4 11.3 0.00 0.00 0.00 44 1011.5
20260507204516 15 289 6.4 14.5 0.00 0.00 0.00 45 1011.7
20260507203536 16 296 4.8 9.7 0.00 0.00 0.00 43 1011.6
20260507202536 16 250 4.8 12.9 0.00 0.00 0.00 44 1011.4
20260507201516 15 268 6.4 14.5 0.00 0.00 0.00 46 1011.6
20260507200556 15 296 4.8 12.9 0.00 0.00 0.00 44 1011.7
20260507195556 15 292 6.4 14.5 0.00 0.00 0.00 47 1011.8
20260507194536 15 290 3.2 8.0 0.00 0.00 0.00 46 1011.8
20260507193516 15 281 3.2 9.7 0.00 0.00 0.00 45 1011.9
20260507192516 15 298 6.4 14.5 0.00 0.00 0.00 44 1012.0
20260507191536 15 288 4.8 9.7 0.00 0.00 0.00 46 1012.1
20260507190516 15 286 8.0 16.1 0.00 0.00 0.00 44 1012.2
20260507185516 15 292 4.8 12.9 0.00 0.00 0.00 41 1012.2
20260507184516 16 296 6.4 16.1 0.00 0.00 0.00 40 1012.1
20260507183516 16 261 4.8 12.9 0.00 0.00 0.00 44 1012.2
20260507182516 15 256 3.2 14.5 0.00 0.00 0.00 44 1012.2
20260507181516 15 239 6.4 17.7 0.00 0.00 0.00 44 1012.3
20260507180516 15 243 4.8 12.9 0.00 0.00 0.00 43 1012.4
20260507175516 15 286 6.4 17.7 0.00 0.00 0.00 45 1012.6
20260507174516 15 256 3.2 14.5 0.00 0.00 0.00 44 1012.7
20260507173516 15 276 4.8 16.1 0.00 0.00 0.00 42 1012.8
20260507172516 15 286 6.4 16.1 0.00 0.00 0.00 46 1012.9
20260507171536 15 292 4.8 14.5 0.00 0.00 0.00 44 1013.0
20260507170516 15 246 3.2 12.9 0.00 0.00 0.00 44 1013.1
20260507165516 15 225 4.8 14.5 0.00 0.00 0.00 45 1013.2
20260507164516 15 283 4.8 12.9 0.00 0.00 0.00 45 1013.2
20260507163516 14 227 6.4 14.5 0.00 0.00 0.00 45 1013.2
20260507162516 14 268 6.4 12.9 0.00 0.00 0.00 46 1013.2
20260507161516 13 297 6.4 11.3 0.00 0.00 0.00 46 1013.1
20260507160515 13 292 6.4 11.3 0.00 0.00 0.00 45 1013.2
20260507155516 13 244 4.8 14.5 0.00 0.00 0.00 46 1013.3
20260507154516 13 292 6.4 14.5 0.00 0.00 0.00 46 1013.3
20260507153515 13 240 4.8 9.7 0.00 0.00 0.00 49 1013.3
20260507152516 13 296 4.8 11.3 0.00 0.00 0.00 50 1013.4
20260507151536 13 242 4.8 11.3 0.00 0.00 0.00 49 1013.5
20260507150516 12 274 4.8 11.3 0.00 0.00 0.00 53 1013.6
20260507145515 12 287 3.2 9.7 0.00 0.00 0.00 56 1013.6
20260507144516 12 272 3.2 6.4 0.00 0.00 0.00 58 1013.7
20260507143516 12 307 4.8 11.3 0.00 0.00 0.00 55 1013.7
20260507142515 12 291 4.8 11.3 0.00 0.00 0.00 59 1013.7
20260507141516 11 281 3.2 9.7 0.00 0.00 0.00 61 1013.9
20260507140516 11 253 3.2 8.0 0.00 0.00 0.00 63 1014.0
20260507135515 11 290 3.2 8.0 0.00 0.00 0.00 62 1014.1
20260507134515 10 284 3.2 11.3 0.00 0.00 0.00 65 1014.2
20260507133515 10 297 3.2 6.4 0.00 0.00 0.00 68 1014.2
20260507132516 9 267 3.2 8.0 0.00 0.00 0.00 78 1014.1
20260507131516 8 142 0.0 1.6 0.00 0.00 0.00 87 1014.2
20260507130516 8 269 0.0 1.6 0.00 0.00 0.00 88 1014.2
20260507125515 7 91 0.0 1.6 0.00 0.00 0.00 89 1014.2
20260507124516 7 318 0.0 1.6 0.00 0.00 0.00 90 1014.1
20260507123516 6 281 0.0 1.6 0.00 0.03 0.00 90 1014.2
20260507122516 6 0.0 0.0 0.00 0.03 0.00 91 1014.1
20260507121516 5 0.0 0.0 0.00 0.03 0.00 91 1014.2
20260507120515 4 0.0 0.0 0.00 0.03 0.00 91 1014.1
20260507115516 3 0.0 0.0 0.00 0.03 0.00 90 1014.0
20260507114515 3 0.0 0.0 0.00 0.03 0.00 90 1014.0
20260507113515 3 0.0 0.0 0.00 0.05 0.00 90 1013.9
20260507112516 2 0.0 0.0 0.00 0.05 0.00 90 1013.8
20260507111515 2 0.0 0.0 0.00 0.08 0.00 90 1013.8
20260507110515 2 0.0 0.0 0.00 0.08 0.00 90 1013.7
20260507105515 2 0.0 0.0 0.00 0.08 0.00 90 1013.7
20260507104556 2 0.0 0.0 0.00 0.08 0.00 90 1013.7
20260507103515 2 0.0 0.0 0.00 0.08 0.00 89 1013.7
20260507102516 2 0.0 0.0 0.00 0.08 0.00 89 1013.6
20260507101536 2 0.0 0.0 0.00 0.08 0.00 89 1013.6
20260507100515 2 0.0 0.0 0.00 0.08 0.00 89 1013.4
20260507095515 2 0.0 0.0 0.00 0.08 0.00 89 1013.5
20260507094515 2 0.0 0.0 0.00 0.10 0.00 89 1013.5
20260507093515 3 0.0 0.0 0.00 0.13 0.00 89 1013.5
20260507092515 3 0.0 0.0 0.00 0.15 0.00 89 1013.5
20260507091516 3 0.0 0.0 0.00 0.20 0.00 89 1013.6
20260507090516 3 0.0 0.0 0.00 0.25 0.00 89 1013.6
20260507085536 3 0.0 0.0 0.00 0.30 0.00 89 1013.7
20260507084515 3 0.0 0.0 0.00 0.30 0.00 88 1013.6
20260507083515 3 0.0 0.0 0.00 0.30 0.00 88 1013.7
20260507082515 3 0.0 0.0 0.00 0.33 0.00 88 1013.7
20260507081535 3 0.0 0.0 0.00 0.38 0.00 88 1013.8
20260507080515 3 0.0 0.0 0.00 0.41 0.00 88 1013.8
20260507075515 4 0.0 0.0 0.00 0.48 0.00 88 1013.9